Time,TemperatureF,DewpointF,PressureIn,WindDirection,WindDirectionDegrees,WindSpeedMPH,WindSpeedGustMPH,Humidity,HourlyPrecipIn,Conditions,Clouds,dailyrainin,SoftwareType,DateUTC
2013-05-05 00:04:00,53.2,38.4,30.01,North,0,0.0,0.0,57,0.00,,,0.00,WUHU216HW,2013-05-05 07:04:00,
2013-05-05 00:09:00,53.0,38.3,30.00,North,0,0.0,0.0,57,0.00,,,0.00,WUHU216HW,2013-05-05 07:09:00,
2013-05-05 00:15:00,52.8,38.5,30.00,North,0,0.0,0.0,58,0.00,,,0.00,WUHU216HW,2013-05-05 07:15:00,
2013-05-05 00:21:00,52.8,39.0,30.00,North,0,0.0,0.0,59,0.00,,,0.00,WUHU216HW,2013-05-05 07:21:00,
2013-05-05 00:27:00,53.4,39.1,30.00,North,0,0.0,0.0,58,0.00,,,0.00,WUHU216HW,2013-05-05 07:27:00,
2013-05-05 00:32:00,54.1,38.8,30.00,North,0,0.0,0.0,56,0.00,,,0.00,WUHU216HW,2013-05-05 07:32:00,
2013-05-05 00:37:00,55.0,38.7,30.00,NW,315,1.4,1.5,54,0.00,,,0.00,WUHU216HW,2013-05-05 07:37:00,
2013-05-05 00:42:00,55.5,38.6,30.00,NW,315,0.0,1.5,53,0.00,,,0.00,WUHU216HW,2013-05-05 07:42:00,
2013-05-05 00:47:00,55.7,38.8,30.00,WSW,248,0.0,0.0,53,0.00,,,0.00,WUHU216HW,2013-05-05 07:47:00,
2013-05-05 00:52:00,55.9,38.5,30.00,NNW,338,0.0,0.0,52,0.00,,,0.00,WUHU216HW,2013-05-05 07:52:00,
2013-05-05 00:58:00,56.1,38.2,30.00,NNW,338,0.0,0.0,51,0.00,,,0.00,WUHU216HW,2013-05-05 07:58:00,
2013-05-05 01:03:00,56.5,38.1,29.99,NNE,23,0.0,0.0,50,0.00,,,0.00,WUHU216HW,2013-05-05 08:03:00,
2013-05-05 01:08:00,56.5,37.6,29.99,NNW,338,0.0,0.0,49,0.00,,,0.00,WUHU216HW,2013-05-05 08:08:00,
2013-05-05 01:13:00,56.7,37.8,29.99,North,0,0.0,0.0,49,0.00,,,0.00,WUHU216HW,2013-05-05 08:13:00,
2013-05-05 01:18:00,56.9,37.4,29.99,North,0,0.0,0.0,48,0.00,,,0.00,WUHU216HW,2013-05-05 08:18:00,
2013-05-05 01:23:00,57.0,36.9,29.99,North,0,0.0,0.0,47,0.00,,,0.00,WUHU216HW,2013-05-05 08:23:00,
2013-05-05 01:28:00,57.6,37.5,29.99,North,0,0.0,0.0,47,0.00,,,0.00,WUHU216HW,2013-05-05 08:28:00,
2013-05-05 01:33:00,57.6,37.5,29.99,NNW,338,0.0,0.0,47,0.00,,,0.00,WUHU216HW,2013-05-05 08:33:00,
2013-05-05 01:38:00,57.6,36.9,29.99,North,0,0.6,0.6,46,0.00,,,0.00,WUHU216HW,2013-05-05 08:38:00,
2013-05-05 01:43:00,57.6,36.9,29.99,North,0,0.0,0.6,46,0.00,,,0.00,WUHU216HW,2013-05-05 08:43:00,
2013-05-05 01:51:00,57.6,36.9,29.98,North,0,0.0,0.0,46,0.00,,,0.00,WUHU216HW,2013-05-05 08:51:00,
2013-05-05 01:58:00,58.1,36.8,29.98,North,0,0.0,0.0,45,0.00,,,0.00,WUHU216HW,2013-05-05 08:58:00,
2013-05-05 02:03:00,58.3,37.0,29.98,North,0,0.0,0.6,45,0.00,,,0.00,WUHU216HW,2013-05-05 09:03:00,
2013-05-05 02:08:00,58.3,37.0,29.98,North,0,0.0,0.6,45,0.00,,,0.00,WUHU216HW,2013-05-05 09:08:00,
2013-05-05 02:14:00,57.9,36.6,29.99,NE,45,2.9,3.1,45,0.00,,,0.00,WUHU216HW,2013-05-05 09:14:00,
2013-05-05 02:21:00,57.6,36.9,29.98,NNE,23,0.0,3.1,46,0.00,,,0.00,WUHU216HW,2013-05-05 09:21:00,
2013-05-05 02:26:00,57.4,37.3,29.99,NNE,23,0.0,0.0,47,0.00,,,0.00,WUHU216HW,2013-05-05 09:26:00,
2013-05-05 02:32:00,56.7,37.2,29.98,North,0,0.0,0.0,48,0.00,,,0.00,WUHU216HW,2013-05-05 09:32:00,
2013-05-05 02:37:00,56.3,37.4,29.98,North,0,2.1,2.2,49,0.00,,,0.00,WUHU216HW,2013-05-05 09:37:00,
2013-05-05 02:42:00,56.2,37.8,29.98,NNW,338,1.2,2.2,50,0.00,,,0.00,WUHU216HW,2013-05-05 09:42:00,
2013-05-05 02:47:00,56.1,37.7,29.98,North,0,0.0,1.3,50,0.00,,,0.00,WUHU216HW,2013-05-05 09:47:00,
2013-05-05 02:52:00,55.7,37.8,29.99,NNE,23,0.0,0.0,51,0.00,,,0.00,WUHU216HW,2013-05-05 09:52:00,
2013-05-05 02:58:00,55.3,38.0,29.98,NNW,338,0.0,0.0,52,0.00,,,0.00,WUHU216HW,2013-05-05 09:58:00,
2013-05-05 03:03:00,54.8,37.5,29.98,NNW,338,0.0,0.0,52,0.00,,,0.00,WUHU216HW,2013-05-05 10:03:00,
2013-05-05 03:08:00,54.6,37.3,29.98,NNW,338,0.0,0.0,52,0.00,,,0.00,WUHU216HW,2013-05-05 10:08:00,
2013-05-05 03:14:00,54.1,37.4,29.98,NNW,338,0.0,0.0,53,0.00,,,0.00,WUHU216HW,2013-05-05 10:14:00,
2013-05-05 03:19:00,53.7,37.5,29.99,NNW,338,0.0,0.0,54,0.00,,,0.00,WUHU216HW,2013-05-05 10:19:00,
2013-05-05 03:24:00,53.4,37.2,29.98,NNW,338,0.0,0.0,54,0.00,,,0.00,WUHU216HW,2013-05-05 10:24:00,
2013-05-05 03:29:00,53.4,37.2,29.99,NNW,338,0.0,0.0,54,0.00,,,0.00,WUHU216HW,2013-05-05 10:29:00,
2013-05-05 03:35:00,53.2,37.5,29.98,NNW,338,0.0,0.0,55,0.00,,,0.00,WUHU216HW,2013-05-05 10:35:00,
2013-05-05 03:40:00,52.6,37.4,29.98,NNW,338,0.0,0.0,56,0.00,,,0.00,WUHU216HW,2013-05-05 10:40:00,
2013-05-05 03:45:00,52.5,37.8,29.98,NNW,338,0.0,0.0,57,0.00,,,0.00,WUHU216HW,2013-05-05 10:45:00,
2013-05-05 03:50:00,52.6,37.9,29.98,NNW,338,0.0,0.0,57,0.00,,,0.00,WUHU216HW,2013-05-05 10:50:00,
2013-05-05 03:56:00,53.2,38.0,29.98,North,0,0.0,0.0,56,0.00,,,0.00,WUHU216HW,2013-05-05 10:56:00,
2013-05-05 04:01:00,53.4,38.2,29.98,NNW,338,0.0,0.0,56,0.00,,,0.00,WUHU216HW,2013-05-05 11:01:00,
2013-05-05 04:07:00,53.4,38.2,29.98,NNW,338,0.0,0.0,56,0.00,,,0.00,WUHU216HW,2013-05-05 11:07:00,
2013-05-05 04:12:00,53.2,38.0,29.98,NE,45,0.0,1.1,56,0.00,,,0.00,WUHU216HW,2013-05-05 11:12:00,
2013-05-05 04:18:00,53.5,38.3,29.98,NNE,23,0.0,1.1,56,0.00,,,0.00,WUHU216HW,2013-05-05 11:18:00,
2013-05-05 04:23:00,53.5,38.3,29.98,North,0,0.0,0.0,56,0.00,,,0.00,WUHU216HW,2013-05-05 11:23:00,
2013-05-05 04:29:00,54.1,38.3,29.98,NNE,23,0.0,2.9,55,0.00,,,0.00,WUHU216HW,2013-05-05 11:29:00,
2013-05-05 04:34:00,54.1,37.9,29.97,NNE,23,0.0,2.9,54,0.00,,,0.00,WUHU216HW,2013-05-05 11:34:00,
2013-05-05 04:39:00,54.4,38.1,29.98,North,0,3.1,5.5,54,0.00,,,0.00,WUHU216HW,2013-05-05 11:39:00,
2013-05-05 04:44:00,54.8,38.0,29.97,NNE,23,0.0,5.5,53,0.00,,,0.00,WUHU216HW,2013-05-05 11:44:00,
2013-05-05 04:50:00,54.6,37.8,29.97,NW,315,0.0,0.0,53,0.00,,,0.00,WUHU216HW,2013-05-05 11:50:00,
2013-05-05 04:55:00,54.4,38.1,29.97,NNE,23,0.0,0.0,54,0.00,,,0.00,WUHU216HW,2013-05-05 11:55:00,
2013-05-05 05:01:00,54.1,37.9,29.97,North,0,0.0,0.0,54,0.00,,,0.00,WUHU216HW,2013-05-05 12:01:00,
2013-05-05 05:06:00,54.1,37.9,29.98,North,0,0.0,0.0,54,0.00,,,0.00,WUHU216HW,2013-05-05 12:06:00,
2013-05-05 05:11:00,53.9,37.7,29.97,North,0,0.0,0.0,54,0.00,,,0.00,WUHU216HW,2013-05-05 12:11:00,
2013-05-05 05:17:00,53.9,38.2,29.97,North,0,0.0,0.0,55,0.00,,,0.00,WUHU216HW,2013-05-05 12:17:00,
2013-05-05 05:22:00,53.5,37.8,29.97,North,0,0.0,0.0,55,0.00,,,0.00,WUHU216HW,2013-05-05 12:22:00,
2013-05-05 05:27:00,53.5,37.8,29.97,North,0,0.0,0.0,55,0.00,,,0.00,WUHU216HW,2013-05-05 12:27:00,
2013-05-05 05:32:00,53.5,37.8,29.97,NNE,23,0.0,0.0,55,0.00,,,0.00,WUHU216HW,2013-05-05 12:32:00,
2013-05-05 05:38:00,53.4,38.2,29.97,NNE,23,0.0,0.0,56,0.00,,,0.00,WUHU216HW,2013-05-05 12:38:00,
2013-05-05 05:43:00,53.2,38.0,29.97,NNE,23,0.0,0.0,56,0.00,,,0.00,WUHU216HW,2013-05-05 12:43:00,
2013-05-05 05:48:00,52.8,38.1,29.97,NNE,23,0.0,0.0,57,0.00,,,0.00,WUHU216HW,2013-05-05 12:48:00,
2013-05-05 05:53:00,52.3,38.1,29.97,NE,45,0.0,0.0,58,0.00,,,0.00,WUHU216HW,2013-05-05 12:53:00,
2013-05-05 05:58:00,52.1,38.3,29.97,NE,45,0.0,0.0,59,0.00,,,0.00,WUHU216HW,2013-05-05 12:58:00,
2013-05-05 06:04:00,52.3,38.5,29.96,North,0,0.0,0.0,59,0.00,,,0.00,WUHU216HW,2013-05-05 13:04:00,
2013-05-05 06:09:00,52.1,38.3,29.96,North,0,0.0,0.0,59,0.00,,,0.00,WUHU216HW,2013-05-05 13:09:00,
2013-05-05 06:14:00,51.9,38.1,29.96,North,0,0.0,0.0,59,0.00,,,0.00,WUHU216HW,2013-05-05 13:14:00,
2013-05-05 06:19:00,51.7,38.8,29.96,NW,315,0.0,0.0,61,0.00,,,0.00,WUHU216HW,2013-05-05 13:19:00,
2013-05-05 06:24:00,52.3,39.4,29.97,North,0,0.0,1.3,61,0.00,,,0.00,WUHU216HW,2013-05-05 13:24:00,
2013-05-05 06:30:00,52.6,39.7,29.97,North,0,4.7,4.9,61,0.00,,,0.00,WUHU216HW,2013-05-05 13:30:00,
2013-05-05 06:37:00,53.0,40.0,29.96,NNW,338,0.0,4.9,61,0.00,,,0.00,WUHU216HW,2013-05-05 13:37:00,
2013-05-05 06:42:00,53.0,40.0,29.96,NNE,23,0.0,6.0,61,0.00,,,0.00,WUHU216HW,2013-05-05 13:42:00,
2013-05-05 06:47:00,53.0,40.0,29.96,North,0,0.0,6.0,61,0.00,,,0.00,WUHU216HW,2013-05-05 13:47:00,
2013-05-05 06:53:00,53.2,40.2,29.96,NE,45,0.0,1.5,61,0.00,,,0.00,WUHU216HW,2013-05-05 13:53:00,
2013-05-05 06:59:00,53.4,40.4,29.96,NNW,338,0.0,0.0,61,0.00,,,0.00,WUHU216HW,2013-05-05 13:59:00,
2013-05-05 07:04:00,53.5,40.5,29.96,NNW,338,0.6,1.5,61,0.00,,,0.00,WUHU216HW,2013-05-05 14:04:00,
2013-05-05 07:09:00,53.5,40.9,29.96,NNW,338,0.0,1.5,62,0.00,,,0.00,WUHU216HW,2013-05-05 14:09:00,
2013-05-05 07:14:00,53.5,40.9,29.96,North,0,0.0,0.0,62,0.00,,,0.00,WUHU216HW,2013-05-05 14:14:00,
2013-05-05 07:19:00,53.9,41.3,29.97,ESE,113,0.0,0.0,62,0.00,,,0.00,WUHU216HW,2013-05-05 14:19:00,
2013-05-05 07:24:00,55.2,42.5,29.96,NE,45,0.0,0.0,62,0.00,,,0.00,WUHU216HW,2013-05-05 14:24:00,
2013-05-05 07:30:00,57.0,43.4,29.96,NW,315,0.0,0.0,60,0.00,,,0.00,WUHU216HW,2013-05-05 14:30:00,
2013-05-05 07:35:00,59.9,43.8,29.96,NNE,23,0.0,2.2,55,0.00,,,0.00,WUHU216HW,2013-05-05 14:35:00,
2013-05-05 07:40:00,61.8,44.6,29.96,North,0,0.0,2.2,53,0.00,,,0.00,WUHU216HW,2013-05-05 14:40:00,
2013-05-05 07:45:00,64.1,45.1,29.96,North,0,0.0,0.0,50,0.00,,,0.00,WUHU216HW,2013-05-05 14:45:00,
2013-05-05 07:50:00,65.6,44.8,29.96,North,0,0.0,0.0,47,0.00,,,0.00,WUHU216HW,2013-05-05 14:50:00,
2013-05-05 07:55:00,66.7,44.7,29.97,North,0,0.0,0.0,45,0.00,,,0.00,WUHU216HW,2013-05-05 14:55:00,
2013-05-05 08:00:00,68.0,44.6,29.96,NE,45,0.0,0.0,43,0.00,,,0.00,WUHU216HW,2013-05-05 15:00:00,
2013-05-05 08:06:00,69.1,44.3,29.96,WSW,248,0.0,0.0,41,0.00,,,0.00,WUHU216HW,2013-05-05 15:06:00,
2013-05-05 08:11:00,70.3,44.7,29.96,WSW,248,0.0,0.0,40,0.00,,,0.00,WUHU216HW,2013-05-05 15:11:00,
2013-05-05 08:18:00,71.7,44.6,29.95,North,0,0.0,4.0,38,0.00,,,0.00,WUHU216HW,2013-05-05 15:18:00,
2013-05-05 08:23:00,72.8,44.9,29.95,NNW,338,0.0,4.0,37,0.00,,,0.00,WUHU216HW,2013-05-05 15:23:00,
2013-05-05 08:29:00,73.5,44.8,29.95,West,270,0.0,3.5,36,0.00,,,0.00,WUHU216HW,2013-05-05 15:29:00,
2013-05-05 08:34:00,73.8,45.0,29.95,WNW,293,0.0,3.5,36,0.00,,,0.00,WUHU216HW,2013-05-05 15:34:00,
2013-05-05 08:39:00,74.4,44.0,29.95,NW,315,0.0,8.2,34,0.00,,,0.00,WUHU216HW,2013-05-05 15:39:00,
2013-05-05 08:44:00,75.5,45.0,29.95,WNW,293,0.0,8.2,34,0.00,,,0.00,WUHU216HW,2013-05-05 15:44:00,
2013-05-05 08:49:00,75.9,44.6,29.95,NW,315,0.0,2.6,33,0.00,,,0.00,WUHU216HW,2013-05-05 15:49:00,
2013-05-05 08:54:00,76.8,43.7,29.95,NNE,23,0.0,2.6,31,0.00,,,0.00,WUHU216HW,2013-05-05 15:54:00,
2013-05-05 08:59:00,76.9,43.8,29.95,NNE,23,3.1,3.3,31,0.00,,,0.00,WUHU216HW,2013-05-05 15:59:00,
2013-05-05 09:05:00,77.2,44.1,29.94,NW,315,0.0,6.7,31,0.00,,,0.00,WUHU216HW,2013-05-05 16:05:00,
2013-05-05 09:10:00,78.3,44.1,29.94,NNW,338,0.0,3.3,30,0.00,,,0.00,WUHU216HW,2013-05-05 16:10:00,
2013-05-05 09:15:00,78.6,42.6,29.94,NNW,338,5.5,5.8,28,0.00,,,0.00,WUHU216HW,2013-05-05 16:15:00,
2013-05-05 09:20:00,78.9,44.7,29.94,NNW,338,6.9,7.3,30,0.00,,,0.00,WUHU216HW,2013-05-05 16:20:00,
2013-05-05 09:26:00,79.6,45.3,29.94,NE,45,0.0,7.3,30,0.00,,,0.00,WUHU216HW,2013-05-05 16:26:00,
2013-05-05 09:32:00,80.6,44.3,29.94,North,0,0.0,3.3,28,0.00,,,0.00,WUHU216HW,2013-05-05 16:32:00,
2013-05-05 09:37:00,81.2,43.9,29.94,WSW,248,0.2,3.3,27,0.00,,,0.00,WUHU216HW,2013-05-05 16:37:00,
2013-05-05 09:42:00,81.1,43.9,29.94,WNW,293,0.0,2.9,27,0.00,,,0.00,WUHU216HW,2013-05-05 16:42:00,
2013-05-05 09:48:00,81.1,43.8,29.93,WNW,293,2.1,6.7,27,0.00,,,0.00,WUHU216HW,2013-05-05 16:48:00,
2013-05-05 09:53:00,81.8,44.4,29.93,NW,315,5.0,6.7,27,0.00,,,0.00,WUHU216HW,2013-05-05 16:53:00,
2013-05-05 09:59:00,81.7,44.4,29.93,West,270,5.7,6.0,27,0.00,,,0.00,WUHU216HW,2013-05-05 16:59:00,
2013-05-05 10:04:00,82.6,44.1,29.93,NW,315,0.0,6.0,26,0.00,,,0.00,WUHU216HW,2013-05-05 17:04:00,
2013-05-05 10:09:00,82.8,45.3,29.94,SW,225,6.1,6.4,27,0.00,,,0.00,WUHU216HW,2013-05-05 17:09:00,
2013-05-05 10:14:00,83.0,44.5,29.94,NNW,338,6.1,6.4,26,0.00,,,0.00,WUHU216HW,2013-05-05 17:14:00,
2013-05-05 10:19:00,82.7,45.2,29.94,WNW,293,0.2,6.4,27,0.00,,,0.00,WUHU216HW,2013-05-05 17:19:00,
2013-05-05 10:24:00,83.4,44.8,29.94,West,270,3.1,6.7,26,0.00,,,0.00,WUHU216HW,2013-05-05 17:24:00,
2013-05-05 10:29:00,84.2,45.5,29.93,NW,315,2.3,6.7,26,0.00,,,0.00,WUHU216HW,2013-05-05 17:29:00,
2013-05-05 10:34:00,84.2,45.5,29.93,WNW,293,0.0,2.4,26,0.00,,,0.00,WUHU216HW,2013-05-05 17:34:00,
2013-05-05 10:39:00,85.3,46.4,29.93,NW,315,0.0,0.0,26,0.00,,,0.00,WUHU216HW,2013-05-05 17:39:00,
2013-05-05 10:45:00,85.3,47.4,29.93,NW,315,1.9,2.0,27,0.00,,,0.00,WUHU216HW,2013-05-05 17:45:00,
2013-05-05 10:51:00,85.2,46.4,29.93,WSW,248,0.6,2.0,26,0.00,,,0.00,WUHU216HW,2013-05-05 17:51:00,
2013-05-05 10:57:00,84.1,44.4,29.93,NE,45,2.3,5.5,25,0.00,,,0.00,WUHU216HW,2013-05-05 17:57:00,
2013-05-05 11:02:00,83.7,45.1,29.93,North,0,1.6,6.4,26,0.00,,,0.00,WUHU216HW,2013-05-05 18:02:00,
2013-05-05 11:08:00,85.2,46.3,29.92,NNE,23,0.8,10.9,26,0.00,,,0.00,WUHU216HW,2013-05-05 18:08:00,
2013-05-05 11:14:00,85.1,45.3,29.92,NW,315,5.2,5.5,25,0.00,,,0.00,WUHU216HW,2013-05-05 18:14:00,
2013-05-05 11:19:00,85.1,44.2,29.92,NW,315,4.4,5.5,24,0.00,,,0.00,WUHU216HW,2013-05-05 18:19:00,
2013-05-05 11:24:00,85.4,45.5,29.91,North,0,8.8,9.3,25,0.00,,,0.00,WUHU216HW,2013-05-05 18:24:00,
2013-05-05 11:30:00,84.5,44.7,29.92,SE,135,0.0,9.3,25,0.00,,,0.00,WUHU216HW,2013-05-05 18:30:00,
2013-05-05 11:37:00,84.9,45.0,29.91,NNE,23,4.8,5.1,25,0.00,,,0.00,WUHU216HW,2013-05-05 18:37:00,
2013-05-05 11:43:00,85.0,46.2,29.91,WSW,248,0.0,5.1,26,0.00,,,0.00,WUHU216HW,2013-05-05 18:43:00,
2013-05-05 11:50:00,85.9,45.9,29.91,NW,315,0.0,8.0,25,0.00,,,0.00,WUHU216HW,2013-05-05 18:50:00,
2013-05-05 11:55:00,86.1,46.1,29.91,WNW,293,0.0,9.1,25,0.00,,,0.00,WUHU216HW,2013-05-05 18:55:00,
2013-05-05 12:01:00,86.8,45.6,29.91,NE,45,5.2,5.5,24,0.00,,,0.00,WUHU216HW,2013-05-05 19:01:00,
2013-05-05 12:06:00,86.5,45.4,29.90,WNW,293,0.0,5.5,24,0.00,,,0.00,WUHU216HW,2013-05-05 19:06:00,
2013-05-05 12:12:00,86.3,46.3,29.90,WSW,248,0.0,4.0,25,0.00,,,0.00,WUHU216HW,2013-05-05 19:12:00,
2013-05-05 12:18:00,86.7,46.6,29.90,WSW,248,0.0,5.5,25,0.00,,,0.00,WUHU216HW,2013-05-05 19:18:00,
2013-05-05 12:25:00,86.7,45.5,29.90,West,270,0.0,6.0,24,0.00,,,0.00,WUHU216HW,2013-05-05 19:25:00,
2013-05-05 12:31:00,86.5,45.4,29.90,NW,315,0.0,2.9,24,0.00,,,0.00,WUHU216HW,2013-05-05 19:31:00,
2013-05-05 12:37:00,85.8,42.5,29.90,WSW,248,3.8,5.8,22,0.00,,,0.00,WUHU216HW,2013-05-05 19:37:00,
2013-05-05 12:42:00,85.4,44.4,29.90,West,270,0.0,5.8,24,0.00,,,0.00,WUHU216HW,2013-05-05 19:42:00,
2013-05-05 12:48:00,85.6,44.6,29.90,WSW,248,0.0,2.4,24,0.00,,,0.00,WUHU216HW,2013-05-05 19:48:00,
2013-05-05 12:55:00,85.2,44.2,29.90,West,270,4.8,6.4,24,0.00,,,0.00,WUHU216HW,2013-05-05 19:55:00,
2013-05-05 13:00:00,85.2,43.1,29.89,SE,135,0.8,6.4,23,0.00,,,0.00,WUHU216HW,2013-05-05 20:00:00,
2013-05-05 13:06:00,84.9,42.9,29.89,WNW,293,2.5,2.6,23,0.00,,,0.00,WUHU216HW,2013-05-05 20:06:00,
2013-05-05 13:11:00,84.3,41.3,29.89,North,0,0.0,5.3,22,0.00,,,0.00,WUHU216HW,2013-05-05 20:11:00,
2013-05-05 13:16:00,84.0,41.0,29.89,North,0,3.1,3.3,22,0.00,,,0.00,WUHU216HW,2013-05-05 20:16:00,
2013-05-05 13:21:00,84.3,44.5,29.89,West,270,1.6,3.3,25,0.00,,,0.00,WUHU216HW,2013-05-05 20:21:00,
2013-05-05 13:27:00,85.1,45.3,29.89,SW,225,0.0,6.9,25,0.00,,,0.00,WUHU216HW,2013-05-05 20:27:00,
2013-05-05 13:32:00,85.5,44.6,29.88,West,270,5.8,8.2,24,0.00,,,0.00,WUHU216HW,2013-05-05 20:32:00,
2013-05-05 13:37:00,85.5,44.5,29.88,West,270,3.3,8.2,24,0.00,,,0.00,WUHU216HW,2013-05-05 20:37:00,
2013-05-05 13:42:00,85.5,43.4,29.88,NW,315,0.0,3.5,23,0.00,,,0.00,WUHU216HW,2013-05-05 20:42:00,
2013-05-05 13:47:00,84.8,44.0,29.88,NW,315,0.0,2.9,24,0.00,,,0.00,WUHU216HW,2013-05-05 20:47:00,
2013-05-05 13:52:00,85.1,42.0,29.88,NW,315,0.0,3.5,22,0.00,,,0.00,WUHU216HW,2013-05-05 20:52:00,
2013-05-05 13:57:00,85.3,40.9,29.88,NNW,338,3.1,3.5,21,0.00,,,0.00,WUHU216HW,2013-05-05 20:57:00,
2013-05-05 14:02:00,84.9,41.7,29.88,WSW,248,6.1,6.4,22,0.00,,,0.00,WUHU216HW,2013-05-05 21:02:00,
2013-05-05 14:08:00,85.5,42.3,29.87,NNW,338,0.0,6.4,22,0.00,,,0.00,WUHU216HW,2013-05-05 21:08:00,
2013-05-05 14:14:00,85.7,41.3,29.87,SSW,203,0.0,6.4,21,0.00,,,0.00,WUHU216HW,2013-05-05 21:14:00,
2013-05-05 14:19:00,85.4,39.7,29.87,North,354,2.6,5.5,20,0.00,,,0.00,WUHU216HW,2013-05-05 21:19:00,
2013-05-05 14:24:00,85.6,41.1,29.87,WNW,293,0.0,5.5,21,0.00,,,0.00,WUHU216HW,2013-05-05 21:24:00,
2013-05-05 14:30:00,85.8,40.0,29.87,WSW,248,5.2,5.5,20,0.00,,,0.00,WUHU216HW,2013-05-05 21:30:00,
2013-05-05 14:35:00,86.0,42.7,29.86,NW,315,3.8,7.3,22,0.00,,,0.00,WUHU216HW,2013-05-05 21:35:00,
2013-05-05 14:40:00,86.0,41.5,29.86,WNW,293,0.0,4.0,21,0.00,,,0.00,WUHU216HW,2013-05-05 21:40:00,
2013-05-05 14:45:00,86.1,41.6,29.86,North,0,1.2,3.5,21,0.00,,,0.00,WUHU216HW,2013-05-05 21:45:00,
2013-05-05 14:50:00,85.8,41.3,29.86,North,0,4.8,5.1,21,0.00,,,0.00,WUHU216HW,2013-05-05 21:50:00,
2013-05-05 14:56:00,85.8,42.5,29.86,WSW,248,4.0,6.4,22,0.00,,,0.00,WUHU216HW,2013-05-05 21:56:00,
2013-05-05 15:01:00,86.1,42.8,29.85,NNE,23,0.0,6.9,22,0.00,,,0.00,WUHU216HW,2013-05-05 22:01:00,
2013-05-05 15:07:00,85.6,41.2,29.85,SW,225,0.0,6.9,21,0.00,,,0.00,WUHU216HW,2013-05-05 22:07:00,
2013-05-05 15:12:00,86.5,41.9,29.85,North,0,4.0,6.9,21,0.00,,,0.00,WUHU216HW,2013-05-05 22:12:00,
2013-05-05 15:17:00,86.7,40.8,29.85,NNW,338,0.0,4.2,20,0.00,,,0.00,WUHU216HW,2013-05-05 22:17:00,
2013-05-05 15:22:00,87.0,41.1,29.84,West,270,0.0,8.7,20,0.00,,,0.00,WUHU216HW,2013-05-05 22:22:00,
2013-05-05 15:27:00,87.2,40.0,29.84,WSW,253,4.3,8.7,19,0.00,,,0.00,WUHU216HW,2013-05-05 22:27:00,
2013-05-05 15:32:00,87.3,41.3,29.84,North,0,2.5,6.7,20,0.00,,,0.00,WUHU216HW,2013-05-05 22:32:00,
2013-05-05 15:37:00,87.9,41.8,29.84,NE,45,3.1,4.0,20,0.00,,,0.00,WUHU216HW,2013-05-05 22:37:00,
2013-05-05 15:42:00,87.0,41.1,29.84,West,270,0.0,7.1,20,0.00,,,0.00,WUHU216HW,2013-05-05 22:42:00,
2013-05-05 15:47:00,87.3,41.3,29.84,SW,225,6.7,7.1,20,0.00,,,0.00,WUHU216HW,2013-05-05 22:47:00,
2013-05-05 15:54:00,88.0,39.2,29.83,NE,45,5.7,7.1,18,0.00,,,0.00,WUHU216HW,2013-05-05 22:54:00,
2013-05-05 15:59:00,87.7,40.4,29.83,West,270,0.0,7.8,19,0.00,,,0.00,WUHU216HW,2013-05-05 22:59:00,
2013-05-05 16:06:00,87.8,40.4,29.83,WSW,248,0.0,2.9,19,0.00,,,0.00,WUHU216HW,2013-05-05 23:06:00,
2013-05-05 16:12:00,88.0,40.6,29.83,NW,315,0.0,2.4,19,0.00,,,0.00,WUHU216HW,2013-05-05 23:12:00,
2013-05-05 16:17:00,88.0,40.6,29.83,NNW,338,4.7,4.9,19,0.00,,,0.00,WUHU216HW,2013-05-05 23:17:00,
2013-05-05 16:22:00,88.0,40.6,29.82,West,268,4.7,5.3,19,0.00,,,0.00,WUHU216HW,2013-05-05 23:22:00,
2013-05-05 16:27:00,87.6,40.3,29.82,WSW,248,1.4,6.4,19,0.00,,,0.00,WUHU216HW,2013-05-05 23:27:00,
2013-05-05 16:32:00,88.4,40.9,29.82,West,270,3.1,6.4,19,0.00,,,0.00,WUHU216HW,2013-05-05 23:32:00,
2013-05-05 16:39:00,86.8,38.2,29.81,North,0,3.3,3.5,18,0.00,,,0.00,WUHU216HW,2013-05-05 23:39:00,
2013-05-05 16:44:00,85.6,37.2,29.81,NW,315,0.0,3.8,18,0.00,,,0.00,WUHU216HW,2013-05-05 23:44:00,
2013-05-05 16:49:00,86.5,37.9,29.82,West,270,0.0,3.8,18,0.00,,,0.00,WUHU216HW,2013-05-05 23:49:00,
2013-05-05 16:54:00,86.9,39.7,29.82,NNW,338,0.0,3.8,19,0.00,,,0.00,WUHU216HW,2013-05-05 23:54:00,
2013-05-05 17:00:00,87.4,40.1,29.81,NE,45,4.0,4.2,19,0.00,,,0.00,WUHU216HW,2013-05-06 00:00:00,
2013-05-05 17:05:00,85.8,40.1,29.81,NNW,338,0.0,9.3,20,0.00,,,0.00,WUHU216HW,2013-05-06 00:05:00,
2013-05-05 17:10:00,85.9,40.1,29.81,North,0,1.6,9.3,20,0.00,,,0.00,WUHU216HW,2013-05-06 00:10:00,
2013-05-05 17:15:00,86.1,41.6,29.81,NNW,338,0.0,5.3,21,0.00,,,0.00,WUHU216HW,2013-05-06 00:15:00,
2013-05-05 17:20:00,86.1,40.3,29.81,North,0,2.8,6.7,20,0.00,,,0.00,WUHU216HW,2013-05-06 00:20:00,
2013-05-05 17:25:00,85.3,40.9,29.80,NW,315,0.0,8.0,21,0.00,,,0.00,WUHU216HW,2013-05-06 00:25:00,
2013-05-05 17:30:00,85.5,41.1,29.80,North,0,0.0,8.0,21,0.00,,,0.00,WUHU216HW,2013-05-06 00:30:00,
2013-05-05 17:36:00,85.5,41.1,29.80,WSW,248,0.0,0.0,21,0.00,,,0.00,WUHU216HW,2013-05-06 00:36:00,
2013-05-05 17:41:00,85.7,41.3,29.80,West,270,0.0,6.7,21,0.00,,,0.00,WUHU216HW,2013-05-06 00:41:00,
2013-05-05 17:47:00,86.0,41.5,29.80,WSW,243,3.7,5.5,21,0.00,,,0.00,WUHU216HW,2013-05-06 00:47:00,
2013-05-05 17:53:00,85.6,41.2,29.80,NNW,338,0.0,5.5,21,0.00,,,0.00,WUHU216HW,2013-05-06 00:53:00,
2013-05-05 17:59:00,85.6,41.2,29.80,NNE,23,0.0,0.0,21,0.00,,,0.00,WUHU216HW,2013-05-06 00:59:00,
2013-05-05 18:04:00,84.6,40.3,29.80,NE,45,5.5,10.7,21,0.00,,,0.00,WUHU216HW,2013-05-06 01:04:00,
2013-05-05 18:09:00,84.4,41.4,29.80,SW,225,0.0,10.7,22,0.00,,,0.00,WUHU216HW,2013-05-06 01:09:00,
2013-05-05 18:17:00,83.9,41.0,29.79,WSW,248,4.0,4.2,22,0.00,,,0.00,WUHU216HW,2013-05-06 01:17:00,
2013-05-05 18:22:00,84.0,42.1,29.80,NW,315,0.0,4.2,23,0.00,,,0.00,WUHU216HW,2013-05-06 01:22:00,
2013-05-05 18:27:00,83.8,40.9,29.79,NNW,338,0.0,6.9,22,0.00,,,0.00,WUHU216HW,2013-05-06 01:27:00,
2013-05-05 18:32:00,83.4,40.6,29.79,North,0,4.8,6.9,22,0.00,,,0.00,WUHU216HW,2013-05-06 01:32:00,
2013-05-05 18:38:00,83.2,41.5,29.79,North,0,2.5,5.1,23,0.00,,,0.00,WUHU216HW,2013-05-06 01:38:00,
2013-05-05 18:43:00,83.0,41.3,29.79,NNW,338,0.0,3.5,23,0.00,,,0.00,WUHU216HW,2013-05-06 01:43:00,
2013-05-05 18:48:00,82.8,41.2,29.79,NW,315,0.0,0.0,23,0.00,,,0.00,WUHU216HW,2013-05-06 01:48:00,
2013-05-05 18:54:00,82.1,40.6,29.79,NNW,338,5.7,6.0,23,0.00,,,0.00,WUHU216HW,2013-05-06 01:54:00,
2013-05-05 18:59:00,81.2,42.0,29.79,NNE,23,0.0,6.0,25,0.00,,,0.00,WUHU216HW,2013-05-06 01:59:00,
2013-05-05 19:05:00,80.0,41.9,29.79,NNW,338,2.8,4.4,26,0.00,,,0.00,WUHU216HW,2013-05-06 02:05:00,
2013-05-05 19:10:00,79.7,41.6,29.79,North,0,0.0,4.4,26,0.00,,,0.00,WUHU216HW,2013-05-06 02:10:00,
2013-05-05 19:15:00,79.1,42.1,29.79,NNW,338,0.0,1.5,27,0.00,,,0.00,WUHU216HW,2013-05-06 02:15:00,
2013-05-05 19:21:00,78.1,42.2,29.79,North,0,0.0,5.3,28,0.00,,,0.00,WUHU216HW,2013-05-06 02:21:00,
2013-05-05 19:27:00,77.9,42.0,29.79,North,0,0.0,0.0,28,0.00,,,0.00,WUHU216HW,2013-05-06 02:27:00,
2013-05-05 19:32:00,77.3,42.4,29.79,NW,315,0.0,0.0,29,0.00,,,0.00,WUHU216HW,2013-05-06 02:32:00,
2013-05-05 19:38:00,76.4,42.5,29.79,NW,315,0.0,0.0,30,0.00,,,0.00,WUHU216HW,2013-05-06 02:38:00,
2013-05-05 19:43:00,75.9,43.0,29.79,NW,315,0.0,0.0,31,0.00,,,0.00,WUHU216HW,2013-05-06 02:43:00,
2013-05-05 19:49:00,75.1,43.0,29.79,North,0,0.0,1.3,32,0.00,,,0.00,WUHU216HW,2013-05-06 02:49:00,
2013-05-05 19:56:00,73.7,42.6,29.80,NNE,23,0.0,2.2,33,0.00,,,0.00,WUHU216HW,2013-05-06 02:56:00,
2013-05-05 20:01:00,72.9,42.7,29.79,North,0,0.0,2.2,34,0.00,,,0.00,WUHU216HW,2013-05-06 03:01:00,
2013-05-05 20:06:00,72.2,42.1,29.79,NNE,23,0.0,0.0,34,0.00,,,0.00,WUHU216HW,2013-05-06 03:06:00,
2013-05-05 20:11:00,71.5,42.3,29.79,NNW,338,0.0,5.5,35,0.00,,,0.00,WUHU216HW,2013-05-06 03:11:00,
2013-05-05 20:17:00,71.1,41.8,29.79,WNW,293,0.0,0.0,35,0.00,,,0.00,WUHU216HW,2013-05-06 03:17:00,
2013-05-05 20:23:00,70.5,42.1,29.79,NNW,338,0.0,0.0,36,0.00,,,0.00,WUHU216HW,2013-05-06 03:23:00,
2013-05-05 20:29:00,70.0,41.6,29.80,NNW,338,0.0,0.0,36,0.00,,,0.00,WUHU216HW,2013-05-06 03:29:00,
2013-05-05 20:34:00,69.4,41.8,29.80,NNW,338,0.0,2.2,37,0.00,,,0.00,WUHU216HW,2013-05-06 03:34:00,
2013-05-05 20:40:00,68.9,41.4,29.80,NNW,338,0.0,2.2,37,0.00,,,0.00,WUHU216HW,2013-05-06 03:40:00,
2013-05-05 20:45:00,68.5,41.7,29.79,NNW,338,0.0,0.0,38,0.00,,,0.00,WUHU216HW,2013-05-06 03:45:00,
2013-05-05 20:50:00,68.0,42.0,29.80,ESE,113,0.0,4.6,39,0.00,,,0.00,WUHU216HW,2013-05-06 03:50:00,
2013-05-05 20:56:00,67.3,42.0,29.80,ESE,113,0.0,4.6,40,0.00,,,0.00,WUHU216HW,2013-05-06 03:56:00,
2013-05-05 21:01:00,66.9,41.7,29.80,ENE,68,0.0,0.0,40,0.00,,,0.00,WUHU216HW,2013-05-06 04:01:00,
2013-05-05 21:02:00,66.9,41.7,29.80,ENE,68,0.0,0.0,40,0.00,,,0.00,WUHU216HW,2013-05-06 04:02:00,
2013-05-05 21:03:00,66.9,41.7,29.80,ENE,68,0.0,0.0,40,0.00,,,0.00,WUHU216HW,2013-05-06 04:03:00,
2013-05-05 21:08:00,66.4,42.5,29.80,ENE,68,0.0,0.0,42,0.00,,,0.00,WUHU216HW,2013-05-06 04:08:00,
2013-05-05 21:13:00,65.8,41.9,29.80,NNE,23,0.0,0.0,42,0.00,,,0.00,WUHU216HW,2013-05-06 04:13:00,
2013-05-05 21:18:00,65.6,41.7,29.81,NNE,23,0.0,0.0,42,0.00,,,0.00,WUHU216HW,2013-05-06 04:18:00,
2013-05-05 21:23:00,65.0,42.5,29.81,NNE,23,0.0,0.0,44,0.00,,,0.00,WUHU216HW,2013-05-06 04:23:00,
2013-05-05 21:28:00,64.7,42.2,29.81,NNE,23,0.0,0.0,44,0.00,,,0.00,WUHU216HW,2013-05-06 04:28:00,
2013-05-05 21:33:00,64.7,42.2,29.81,NNE,23,0.0,0.0,44,0.00,,,0.00,WUHU216HW,2013-05-06 04:33:00,
2013-05-05 21:38:00,64.5,42.0,29.81,NNE,23,0.0,0.0,44,0.00,,,0.00,WUHU216HW,2013-05-06 04:38:00,
2013-05-05 21:43:00,63.8,42.0,29.82,NNE,23,0.0,0.0,45,0.00,,,0.00,WUHU216HW,2013-05-06 04:43:00,
2013-05-05 21:48:00,63.6,41.8,29.82,NNE,23,0.0,0.0,45,0.00,,,0.00,WUHU216HW,2013-05-06 04:48:00,
2013-05-05 21:54:00,63.1,42.5,29.82,NNE,23,0.0,0.0,47,0.00,,,0.00,WUHU216HW,2013-05-06 04:54:00,
2013-05-05 22:00:00,62.3,42.4,29.82,NNE,23,0.0,0.0,48,0.00,,,0.00,WUHU216HW,2013-05-06 05:00:00,
2013-05-05 22:05:00,62.2,42.3,29.82,NNE,23,0.0,0.0,48,0.00,,,0.00,WUHU216HW,2013-05-06 05:05:00,
2013-05-05 22:11:00,61.8,41.9,29.82,NNE,23,0.0,0.0,48,0.00,,,0.00,WUHU216HW,2013-05-06 05:11:00,
2013-05-05 22:17:00,61.4,42.6,29.82,NNE,23,0.0,0.0,50,0.00,,,0.00,WUHU216HW,2013-05-06 05:17:00,
2013-05-05 22:22:00,61.2,42.4,29.82,NNE,23,0.0,0.0,50,0.00,,,0.00,WUHU216HW,2013-05-06 05:22:00,
2013-05-05 22:28:00,61.0,42.2,29.82,NNE,23,0.0,0.0,50,0.00,,,0.00,WUHU216HW,2013-05-06 05:28:00,
2013-05-05 22:33:00,60.5,42.3,29.82,NNE,23,0.0,0.0,51,0.00,,,0.00,WUHU216HW,2013-05-06 05:33:00,
2013-05-05 22:39:00,60.1,42.4,29.82,NNE,23,0.0,0.0,52,0.00,,,0.00,WUHU216HW,2013-05-06 05:39:00,
2013-05-05 22:45:00,59.9,42.2,29.82,NNE,23,0.0,0.0,52,0.00,,,0.00,WUHU216HW,2013-05-06 05:45:00,
2013-05-05 22:50:00,59.7,42.6,29.82,NNE,23,0.0,0.0,53,0.00,,,0.00,WUHU216HW,2013-05-06 05:50:00,
2013-05-05 22:56:00,59.4,42.8,29.82,NNE,23,0.0,0.0,54,0.00,,,0.00,WUHU216HW,2013-05-06 05:56:00,
2013-05-05 23:01:00,59.0,42.4,29.82,NNE,23,0.0,0.0,54,0.00,,,0.00,WUHU216HW,2013-05-06 06:01:00,
2013-05-05 23:06:00,58.8,42.7,29.82,NNE,23,0.0,0.0,55,0.00,,,0.00,WUHU216HW,2013-05-06 06:06:00,
2013-05-05 23:11:00,58.7,43.1,29.82,NNE,23,0.0,0.0,56,0.00,,,0.00,WUHU216HW,2013-05-06 06:11:00,
2013-05-05 23:18:00,58.3,43.2,29.82,NNE,23,0.0,0.0,57,0.00,,,0.00,WUHU216HW,2013-05-06 06:18:00,
2013-05-05 23:23:00,58.1,43.1,29.82,NNE,23,0.0,0.0,57,0.00,,,0.00,WUHU216HW,2013-05-06 06:23:00,
2013-05-05 23:30:00,57.8,43.2,29.82,NNE,23,0.0,0.0,58,0.00,,,0.00,WUHU216HW,2013-05-06 06:30:00,
2013-05-05 23:36:00,57.6,43.1,29.82,NNE,23,0.0,0.0,58,0.00,,,0.00,WUHU216HW,2013-05-06 06:36:00,
2013-05-05 23:41:00,57.6,43.5,29.82,NNE,23,0.0,0.0,59,0.00,,,0.00,WUHU216HW,2013-05-06 06:41:00,
2013-05-05 23:46:00,57.4,42.9,29.83,NNE,23,0.0,0.0,58,0.00,,,0.00,WUHU216HW,2013-05-06 06:46:00,
2013-05-05 23:51:00,57.2,42.7,29.83,NNE,23,0.0,0.0,58,0.00,,,0.00,WUHU216HW,2013-05-06 06:51:00,
2013-05-05 23:56:00,57.0,42.5,29.82,NNE,23,0.0,0.0,58,0.00,,,0.00,WUHU216HW,2013-05-06 06:56:00,